Year,Month,Day,Hour,Minute,Value (Times are PST for temperature in C)
2018,10,23,00,00,3.90
2018,10,23,00,01,3.90
2018,10,23,00,02,3.90
2018,10,23,00,03,3.90
2018,10,23,00,04,3.90
2018,10,23,00,05,3.90
2018,10,23,00,06,3.90
2018,10,23,00,07,3.90
2018,10,23,00,08,3.90
2018,10,23,00,09,3.90
2018,10,23,00,10,3.80
2018,10,23,00,11,3.80
2018,10,23,00,12,3.80
2018,10,23,00,13,3.80
2018,10,23,00,14,3.80
2018,10,23,00,15,3.80
2018,10,23,00,16,3.80
2018,10,23,00,17,3.80
2018,10,23,00,18,3.80
2018,10,23,00,19,3.80
2018,10,23,00,20,3.80
2018,10,23,00,21,3.70
2018,10,23,00,22,3.70
2018,10,23,00,23,3.70
2018,10,23,00,24,3.60
2018,10,23,00,25,3.60
2018,10,23,00,26,3.60
2018,10,23,00,27,3.50
2018,10,23,00,28,3.50
2018,10,23,00,29,3.50
2018,10,23,00,30,3.50
2018,10,23,00,31,3.50
2018,10,23,00,32,3.50
2018,10,23,00,33,3.50
2018,10,23,00,34,3.50
2018,10,23,00,35,3.40
2018,10,23,00,36,3.40
2018,10,23,00,37,3.40
2018,10,23,00,38,3.40
2018,10,23,00,39,3.40
2018,10,23,00,40,3.40
2018,10,23,00,41,3.40
2018,10,23,00,42,3.40
2018,10,23,00,43,3.40
2018,10,23,00,44,3.40
2018,10,23,00,45,3.40
2018,10,23,00,46,3.40
2018,10,23,00,47,3.50
2018,10,23,00,48,3.50
2018,10,23,00,49,3.50
2018,10,23,00,50,3.50
2018,10,23,00,51,3.50
2018,10,23,00,52,3.50
2018,10,23,00,53,3.50
2018,10,23,00,54,3.50
2018,10,23,00,55,3.50
2018,10,23,00,56,3.50
2018,10,23,00,57,3.50
2018,10,23,00,58,3.50
2018,10,23,00,59,3.50
2018,10,23,01,00,3.40
2018,10,23,01,01,3.40
2018,10,23,01,02,3.40
2018,10,23,01,03,3.40
2018,10,23,01,04,3.30
2018,10,23,01,05,3.30
2018,10,23,01,06,3.30
2018,10,23,01,07,3.20
2018,10,23,01,08,3.20
2018,10,23,01,09,3.20
2018,10,23,01,10,3.20
2018,10,23,01,11,3.20
2018,10,23,01,12,3.10
2018,10,23,01,13,3.10
2018,10,23,01,14,3.10
2018,10,23,01,15,3.00
2018,10,23,01,16,3.00
2018,10,23,01,17,2.90
2018,10,23,01,18,2.90
2018,10,23,01,19,2.80
2018,10,23,01,20,2.80
2018,10,23,01,21,2.80
2018,10,23,01,22,2.80
2018,10,23,01,23,2.80
2018,10,23,01,24,2.80
2018,10,23,01,25,2.70
2018,10,23,01,26,2.70
2018,10,23,01,27,2.70
2018,10,23,01,28,2.70
2018,10,23,01,29,2.70
2018,10,23,01,30,2.70
2018,10,23,01,31,2.70
2018,10,23,01,32,2.70
2018,10,23,01,33,2.70
2018,10,23,01,34,2.70
2018,10,23,01,35,2.70
2018,10,23,01,36,2.70
2018,10,23,01,37,2.70
2018,10,23,01,38,2.70
2018,10,23,01,39,2.70
2018,10,23,01,40,2.80
2018,10,23,01,41,2.80
2018,10,23,01,42,2.90
2018,10,23,01,43,2.90
2018,10,23,01,44,2.90
2018,10,23,01,45,2.90
2018,10,23,01,46,2.90
2018,10,23,01,47,2.90
2018,10,23,01,48,2.90
2018,10,23,01,49,2.90
2018,10,23,01,50,2.90
2018,10,23,01,51,2.90
2018,10,23,01,52,2.90
2018,10,23,01,53,2.90
2018,10,23,01,54,2.90
2018,10,23,01,55,2.90
2018,10,23,01,56,2.90
2018,10,23,01,57,2.90
2018,10,23,01,58,2.90
2018,10,23,01,59,2.90
2018,10,23,02,00,2.80
2018,10,23,02,01,2.80
2018,10,23,02,02,2.80
2018,10,23,02,03,2.80
2018,10,23,02,04,2.80
2018,10,23,02,05,2.80
2018,10,23,02,06,2.70
2018,10,23,02,07,2.70
2018,10,23,02,08,2.70
2018,10,23,02,09,2.60
2018,10,23,02,10,2.60
2018,10,23,02,11,2.60
2018,10,23,02,12,2.60
2018,10,23,02,13,2.50
2018,10,23,02,14,2.50
2018,10,23,02,15,2.50
2018,10,23,02,16,2.40
2018,10,23,02,17,2.40
2018,10,23,02,18,2.40
2018,10,23,02,19,2.40
2018,10,23,02,20,2.40
2018,10,23,02,21,2.30
2018,10,23,02,22,2.30
2018,10,23,02,23,2.30
2018,10,23,02,24,2.30
2018,10,23,02,25,2.30
2018,10,23,02,26,2.40
2018,10,23,02,27,2.40
2018,10,23,02,28,2.40
2018,10,23,02,29,2.40
2018,10,23,02,30,2.50
2018,10,23,02,31,2.50
2018,10,23,02,32,2.50
2018,10,23,02,33,2.50
2018,10,23,02,34,2.60
2018,10,23,02,35,2.50
2018,10,23,02,36,2.50
2018,10,23,02,37,2.40
2018,10,23,02,38,2.30
2018,10,23,02,39,2.30
2018,10,23,02,40,2.30
2018,10,23,02,41,2.20
2018,10,23,02,42,2.20
2018,10,23,02,43,2.20
2018,10,23,02,44,2.10
2018,10,23,02,45,2.10
2018,10,23,02,46,2.10
2018,10,23,02,47,2.10
2018,10,23,02,48,2.10
2018,10,23,02,49,2.20
2018,10,23,02,50,2.20
2018,10,23,02,51,2.20
2018,10,23,02,52,2.20
2018,10,23,02,53,2.20
2018,10,23,02,54,2.20
2018,10,23,02,55,2.20
2018,10,23,02,56,2.20
2018,10,23,02,57,2.20
2018,10,23,02,58,2.20
2018,10,23,02,59,2.20
2018,10,23,03,00,2.20
2018,10,23,03,01,2.20
2018,10,23,03,02,2.20
2018,10,23,03,03,2.20
2018,10,23,03,04,2.20
2018,10,23,03,05,2.20
2018,10,23,03,06,2.20
2018,10,23,03,07,2.30
2018,10,23,03,08,2.30
2018,10,23,03,09,2.30
2018,10,23,03,10,2.20
2018,10,23,03,11,2.20
2018,10,23,03,12,2.20
2018,10,23,03,13,2.20
2018,10,23,03,14,2.10
2018,10,23,03,15,2.10
2018,10,23,03,16,2.10
2018,10,23,03,17,2.10
2018,10,23,03,18,2.10
2018,10,23,03,19,2.10
2018,10,23,03,20,2.10
2018,10,23,03,21,2.10
2018,10,23,03,22,2.10
2018,10,23,03,23,2.10
2018,10,23,03,24,2.10
2018,10,23,03,25,2.20
2018,10,23,03,26,2.20
2018,10,23,03,27,2.20
2018,10,23,03,28,2.20
2018,10,23,03,29,2.20
2018,10,23,03,30,2.20
2018,10,23,03,31,2.20
2018,10,23,03,32,2.20
2018,10,23,03,33,2.20
2018,10,23,03,34,2.20
2018,10,23,03,35,2.10
2018,10,23,03,36,2.00
2018,10,23,03,37,2.00
2018,10,23,03,38,2.00
2018,10,23,03,39,1.90
2018,10,23,03,40,1.90
2018,10,23,03,41,1.80
2018,10,23,03,42,1.80
2018,10,23,03,43,1.80
2018,10,23,03,44,1.80
2018,10,23,03,45,1.80
2018,10,23,03,46,1.70
2018,10,23,03,47,1.70
2018,10,23,03,48,1.70
2018,10,23,03,49,1.70
2018,10,23,03,50,1.70
2018,10,23,03,51,1.70
2018,10,23,03,52,1.70
2018,10,23,03,53,1.70
2018,10,23,03,54,1.60
2018,10,23,03,55,1.60
2018,10,23,03,56,1.60
2018,10,23,03,57,1.50
2018,10,23,03,58,1.50
2018,10,23,03,59,1.50
2018,10,23,04,00,1.40
2018,10,23,04,01,1.40
2018,10,23,04,02,1.40
2018,10,23,04,03,1.40
2018,10,23,04,04,1.40
2018,10,23,04,05,1.40
2018,10,23,04,06,1.40
2018,10,23,04,07,1.40
2018,10,23,04,08,1.40
2018,10,23,04,09,1.40
2018,10,23,04,10,1.40
2018,10,23,04,11,1.40
2018,10,23,04,12,1.50
2018,10,23,04,13,1.50
2018,10,23,04,14,1.50
2018,10,23,04,15,1.50
2018,10,23,04,16,1.60
2018,10,23,04,17,1.60
2018,10,23,04,18,1.60
2018,10,23,04,19,1.60
2018,10,23,04,20,1.60
2018,10,23,04,21,1.70
2018,10,23,04,22,1.70
2018,10,23,04,23,1.70
2018,10,23,04,24,1.80
2018,10,23,04,25,1.80
2018,10,23,04,26,1.80
2018,10,23,04,27,1.80
2018,10,23,04,28,1.80
2018,10,23,04,29,1.80
2018,10,23,04,30,1.80
2018,10,23,04,31,1.80
2018,10,23,04,32,1.80
2018,10,23,04,33,1.80
2018,10,23,04,34,1.90
2018,10,23,04,35,1.90
2018,10,23,04,36,1.90
2018,10,23,04,37,1.90
2018,10,23,04,38,1.90
2018,10,23,04,39,1.90
2018,10,23,04,40,1.90
2018,10,23,04,41,1.90
2018,10,23,04,42,1.90
2018,10,23,04,43,1.90
2018,10,23,04,44,1.90
2018,10,23,04,45,1.90
2018,10,23,04,46,1.80
2018,10,23,04,47,1.70
2018,10,23,04,48,1.70
2018,10,23,04,49,1.60
2018,10,23,04,50,1.60
2018,10,23,04,51,1.60
2018,10,23,04,52,1.70
2018,10,23,04,53,1.70
2018,10,23,04,54,1.70
2018,10,23,04,55,1.70
2018,10,23,04,56,1.70
2018,10,23,04,57,1.70
2018,10,23,04,58,1.60
2018,10,23,04,59,1.60
2018,10,23,05,00,1.60
2018,10,23,05,01,1.60
2018,10,23,05,02,1.50
2018,10,23,05,03,1.50
2018,10,23,05,04,1.40
2018,10,23,05,05,1.40
2018,10,23,05,06,1.40
2018,10,23,05,07,1.40
2018,10,23,05,08,1.30
2018,10,23,05,09,1.30
2018,10,23,05,10,1.30
2018,10,23,05,11,1.30
2018,10,23,05,12,1.30
2018,10,23,05,13,1.30
2018,10,23,05,14,1.30
2018,10,23,05,15,1.40
2018,10,23,05,16,1.40
2018,10,23,05,17,1.40
2018,10,23,05,18,1.40
2018,10,23,05,19,1.40
2018,10,23,05,20,1.40
2018,10,23,05,21,1.30
2018,10,23,05,22,1.30
2018,10,23,05,23,1.30
2018,10,23,05,24,1.20
2018,10,23,05,25,1.20
2018,10,23,05,26,1.20
2018,10,23,05,27,1.20
2018,10,23,05,28,1.10
2018,10,23,05,29,1.10
2018,10,23,05,30,1.10
2018,10,23,05,31,1.10
2018,10,23,05,32,1.10
2018,10,23,05,33,1.10
2018,10,23,05,34,1.10
2018,10,23,05,35,1.10
2018,10,23,05,36,1.10
2018,10,23,05,37,1.10
2018,10,23,05,38,1.10
2018,10,23,05,39,1.10
2018,10,23,05,40,1.10
2018,10,23,05,41,1.10
2018,10,23,05,42,1.10
2018,10,23,05,43,1.20
2018,10,23,05,44,1.20
2018,10,23,05,45,1.20
2018,10,23,05,46,1.20
2018,10,23,05,47,1.20
2018,10,23,05,48,1.20
2018,10,23,05,49,1.30
2018,10,23,05,50,1.30
2018,10,23,05,51,1.30
2018,10,23,05,52,1.30
2018,10,23,05,53,1.30
2018,10,23,05,54,1.30
2018,10,23,05,55,1.30
2018,10,23,05,56,1.20
2018,10,23,05,57,1.20
2018,10,23,05,58,1.20
2018,10,23,05,59,1.20
2018,10,23,06,00,1.20
2018,10,23,06,01,1.20
2018,10,23,06,02,1.20
2018,10,23,06,03,1.20
2018,10,23,06,04,1.20
2018,10,23,06,05,1.10
2018,10,23,06,06,1.10
2018,10,23,06,07,1.10
2018,10,23,06,08,1.10
2018,10,23,06,09,1.10
2018,10,23,06,10,1.10
2018,10,23,06,11,1.10
2018,10,23,06,12,1.10
2018,10,23,06,13,1.20
2018,10,23,06,14,1.20
2018,10,23,06,15,1.20
2018,10,23,06,16,1.20
2018,10,23,06,17,1.20
2018,10,23,06,18,1.20
2018,10,23,06,19,1.20
2018,10,23,06,20,1.20
2018,10,23,06,21,1.20
2018,10,23,06,22,1.20
2018,10,23,06,23,1.20
2018,10,23,06,24,1.20
2018,10,23,06,25,1.20
2018,10,23,06,26,1.20
2018,10,23,06,27,1.20
2018,10,23,06,28,1.20
2018,10,23,06,29,1.20
2018,10,23,06,30,1.20
2018,10,23,06,31,1.20
2018,10,23,06,32,1.20
2018,10,23,06,33,1.20
2018,10,23,06,34,1.20
2018,10,23,06,35,1.20
2018,10,23,06,36,1.20
2018,10,23,06,37,1.20
2018,10,23,06,38,1.10
2018,10,23,06,39,1.10
2018,10,23,06,40,1.10
2018,10,23,06,41,1.00
2018,10,23,06,42,1.00
2018,10,23,06,43,1.00
2018,10,23,06,44,0.90
2018,10,23,06,45,0.90
2018,10,23,06,46,0.90
2018,10,23,06,47,0.90
2018,10,23,06,48,0.90
2018,10,23,06,49,0.90
2018,10,23,06,50,0.90
2018,10,23,06,51,0.90
2018,10,23,06,52,0.90
2018,10,23,06,53,0.90
2018,10,23,06,54,0.90
2018,10,23,06,55,0.90
2018,10,23,06,56,0.80
2018,10,23,06,57,0.80
2018,10,23,06,58,0.80
2018,10,23,06,59,0.80
2018,10,23,07,00,0.80
2018,10,23,07,01,0.80
2018,10,23,07,02,0.80
2018,10,23,07,03,0.80
2018,10,23,07,04,0.80
2018,10,23,07,05,0.80
2018,10,23,07,06,0.80
2018,10,23,07,07,0.80
2018,10,23,07,08,0.80
2018,10,23,07,09,0.80
2018,10,23,07,10,0.80
2018,10,23,07,11,0.80
2018,10,23,07,12,0.80
2018,10,23,07,13,0.90
2018,10,23,07,14,0.90
2018,10,23,07,15,0.90
2018,10,23,07,16,1.00
2018,10,23,07,17,1.10
2018,10,23,07,18,1.10
2018,10,23,07,19,1.20
2018,10,23,07,20,1.20
2018,10,23,07,21,1.30
2018,10,23,07,22,1.40
2018,10,23,07,23,1.50
2018,10,23,07,24,1.60
2018,10,23,07,25,1.70
2018,10,23,07,26,1.80
2018,10,23,07,27,1.90
2018,10,23,07,28,2.00
2018,10,23,07,29,2.10
2018,10,23,07,30,2.20
2018,10,23,07,31,2.30
2018,10,23,07,32,2.30
2018,10,23,07,33,2.30
2018,10,23,07,34,2.30
2018,10,23,07,35,2.30
2018,10,23,07,36,2.30
2018,10,23,07,37,2.30
2018,10,23,07,38,2.30
2018,10,23,07,39,2.30
2018,10,23,07,40,2.30
2018,10,23,07,41,2.30
2018,10,23,07,42,2.30
2018,10,23,07,43,2.30
2018,10,23,07,44,2.30
2018,10,23,07,45,2.30
2018,10,23,07,46,2.30
2018,10,23,07,47,2.40
2018,10,23,07,48,2.40
2018,10,23,07,49,2.50
2018,10,23,07,50,2.50
2018,10,23,07,51,2.50
2018,10,23,07,52,2.60
2018,10,23,07,53,2.60
2018,10,23,07,54,2.60
2018,10,23,07,55,2.60
2018,10,23,07,56,2.60
2018,10,23,07,57,2.60
2018,10,23,07,58,2.60
2018,10,23,07,59,2.60
2018,10,23,08,00,2.60
2018,10,23,08,01,2.60
2018,10,23,08,02,2.60
2018,10,23,08,03,2.70
2018,10,23,08,04,2.70
2018,10,23,08,05,2.70
2018,10,23,08,06,2.80
2018,10,23,08,07,2.80
2018,10,23,08,08,2.90
2018,10,23,08,09,2.90
2018,10,23,08,10,2.90
2018,10,23,08,11,3.00
2018,10,23,08,12,3.00
2018,10,23,08,13,3.00
2018,10,23,08,14,3.10
2018,10,23,08,15,3.10
2018,10,23,08,16,3.10
2018,10,23,08,17,3.10
2018,10,23,08,18,3.20
2018,10,23,08,19,3.20
2018,10,23,08,20,3.20
2018,10,23,08,21,3.20
2018,10,23,08,22,3.20
2018,10,23,08,23,3.20
2018,10,23,08,24,3.30
2018,10,23,08,25,3.30
2018,10,23,08,26,3.30
2018,10,23,08,27,3.30
2018,10,23,08,28,3.30
2018,10,23,08,29,3.30
2018,10,23,08,30,3.30
2018,10,23,08,31,3.40
2018,10,23,08,32,3.40
2018,10,23,08,33,3.40
2018,10,23,08,34,3.40
2018,10,23,08,35,3.50
2018,10,23,08,36,3.60
2018,10,23,08,37,3.60
2018,10,23,08,38,3.70
2018,10,23,08,39,3.70
2018,10,23,08,40,3.70
2018,10,23,08,41,3.70
2018,10,23,08,42,3.70
2018,10,23,08,43,3.80
2018,10,23,08,44,3.80
2018,10,23,08,45,3.90
2018,10,23,08,46,3.90
2018,10,23,08,47,4.00
2018,10,23,08,48,4.10
2018,10,23,08,49,4.30
2018,10,23,08,50,4.40
2018,10,23,08,51,4.50
2018,10,23,08,52,4.60
2018,10,23,08,53,4.70
2018,10,23,08,54,4.80
2018,10,23,08,55,4.80
2018,10,23,08,56,4.90
2018,10,23,08,57,5.00
2018,10,23,08,58,5.00
2018,10,23,08,59,5.10
2018,10,23,09,00,5.10
2018,10,23,09,01,5.10
2018,10,23,09,02,5.20
2018,10,23,09,03,5.20
2018,10,23,09,04,5.20
2018,10,23,09,05,5.30
2018,10,23,09,06,5.30
2018,10,23,09,07,5.30
2018,10,23,09,08,5.30
2018,10,23,09,09,5.30
2018,10,23,09,10,5.40
2018,10,23,09,11,5.40
2018,10,23,09,12,5.40
2018,10,23,09,13,5.50
2018,10,23,09,14,5.50
2018,10,23,09,15,5.60
2018,10,23,09,16,5.60
2018,10,23,09,17,5.70
2018,10,23,09,18,5.70
2018,10,23,09,19,5.80
2018,10,23,09,20,5.80
2018,10,23,09,21,5.80
2018,10,23,09,22,5.90
2018,10,23,09,23,6.00
2018,10,23,09,24,6.00
2018,10,23,09,25,6.10
2018,10,23,09,26,6.10
2018,10,23,09,27,6.20
2018,10,23,09,28,6.20
2018,10,23,09,29,6.20
2018,10,23,09,30,6.30
2018,10,23,09,31,6.30
2018,10,23,09,32,6.40
2018,10,23,09,33,6.40
2018,10,23,09,34,6.40
2018,10,23,09,35,6.50
2018,10,23,09,36,6.50
2018,10,23,09,37,6.50
2018,10,23,09,38,6.60
2018,10,23,09,39,6.60
2018,10,23,09,40,6.60
2018,10,23,09,41,6.70
2018,10,23,09,42,6.70
2018,10,23,09,43,6.70
2018,10,23,09,44,6.80
2018,10,23,09,45,6.80
2018,10,23,09,46,6.80
2018,10,23,09,47,6.80
2018,10,23,09,48,6.90
2018,10,23,09,49,6.90
2018,10,23,09,50,6.90
2018,10,23,09,51,6.90
2018,10,23,09,52,6.90
2018,10,23,09,53,6.90
2018,10,23,09,54,6.90
2018,10,23,09,55,6.90
2018,10,23,09,56,7.00
2018,10,23,09,57,7.00
2018,10,23,09,58,7.00
2018,10,23,09,59,7.00
2018,10,23,10,00,7.10
2018,10,23,10,01,7.10
2018,10,23,10,02,7.10
2018,10,23,10,03,7.10
2018,10,23,10,04,7.10
2018,10,23,10,05,7.10
2018,10,23,10,06,7.20
2018,10,23,10,07,7.20
2018,10,23,10,08,7.20
2018,10,23,10,09,7.20
2018,10,23,10,10,7.30
2018,10,23,10,11,7.30
2018,10,23,10,12,7.30
2018,10,23,10,13,7.30
2018,10,23,10,14,7.30
2018,10,23,10,15,7.30
2018,10,23,10,16,7.30
2018,10,23,10,17,7.30
2018,10,23,10,18,7.40
2018,10,23,10,19,7.40
2018,10,23,10,20,7.40
2018,10,23,10,21,7.40
2018,10,23,10,22,7.40
2018,10,23,10,23,7.50
2018,10,23,10,24,7.50
2018,10,23,10,25,7.50
2018,10,23,10,26,7.50
2018,10,23,10,27,7.50
2018,10,23,10,28,7.50
2018,10,23,10,29,7.50
2018,10,23,10,30,7.50
2018,10,23,10,31,7.50
2018,10,23,10,32,7.50
2018,10,23,10,33,7.50
2018,10,23,10,34,7.50
2018,10,23,10,35,7.50
2018,10,23,10,36,7.50
2018,10,23,10,37,7.50
2018,10,23,10,38,7.50
2018,10,23,10,39,7.50
2018,10,23,10,40,7.60
2018,10,23,10,41,7.60
2018,10,23,10,42,7.60
2018,10,23,10,43,7.60
2018,10,23,10,44,7.60
2018,10,23,10,45,7.60
2018,10,23,10,46,7.60
2018,10,23,10,47,7.70
2018,10,23,10,48,7.70
2018,10,23,10,49,7.70
2018,10,23,10,50,7.70
2018,10,23,10,51,7.80
2018,10,23,10,52,7.80
2018,10,23,10,53,7.80
2018,10,23,10,54,7.80
2018,10,23,10,55,7.80
2018,10,23,10,56,7.80
2018,10,23,10,57,7.90
2018,10,23,10,58,7.90
2018,10,23,10,59,7.90
2018,10,23,11,00,7.90
2018,10,23,11,01,7.90
2018,10,23,11,02,8.00
2018,10,23,11,03,8.00
2018,10,23,11,04,8.10
2018,10,23,11,05,8.10
2018,10,23,11,06,8.20
2018,10,23,11,07,8.20
2018,10,23,11,08,8.30
2018,10,23,11,09,8.30
2018,10,23,11,10,8.30
2018,10,23,11,11,8.30
2018,10,23,11,12,8.40
2018,10,23,11,13,8.40
2018,10,23,11,14,8.40
2018,10,23,11,15,8.40
2018,10,23,11,16,8.40
2018,10,23,11,17,8.40
2018,10,23,11,18,8.40
2018,10,23,11,19,8.40
2018,10,23,11,20,8.50
2018,10,23,11,21,8.50
2018,10,23,11,22,8.50
2018,10,23,11,23,8.50
2018,10,23,11,24,8.50
2018,10,23,11,25,8.40
2018,10,23,11,26,8.40
2018,10,23,11,27,8.40
2018,10,23,11,28,8.50
2018,10,23,11,29,8.50
2018,10,23,11,30,8.50
2018,10,23,11,31,8.60
2018,10,23,11,32,8.60
2018,10,23,11,33,8.60
2018,10,23,11,34,8.60
2018,10,23,11,35,8.70
2018,10,23,11,36,8.70
2018,10,23,11,37,8.70
2018,10,23,11,38,8.70
2018,10,23,11,39,8.70
2018,10,23,11,40,8.70
2018,10,23,11,41,8.70
2018,10,23,11,42,8.70
2018,10,23,11,43,8.80
2018,10,23,11,44,8.80
2018,10,23,11,45,8.80
2018,10,23,11,46,8.80
2018,10,23,11,47,8.80
2018,10,23,11,48,8.80
2018,10,23,11,49,8.80
2018,10,23,11,50,8.80
2018,10,23,11,51,8.80
2018,10,23,11,52,8.80
2018,10,23,11,53,8.80
2018,10,23,11,54,8.80
2018,10,23,11,55,8.70
2018,10,23,11,56,8.70
2018,10,23,11,57,8.70
2018,10,23,11,58,8.70
2018,10,23,11,59,8.70
2018,10,23,12,00,8.70
2018,10,23,12,01,8.70
2018,10,23,12,02,8.70
2018,10,23,12,03,8.70
2018,10,23,12,04,8.70
2018,10,23,12,05,8.70
2018,10,23,12,06,8.80
2018,10,23,12,07,8.80
2018,10,23,12,08,8.80
2018,10,23,12,09,8.80
2018,10,23,12,10,8.90
2018,10,23,12,11,8.90
2018,10,23,12,12,8.90
2018,10,23,12,13,8.90
2018,10,23,12,14,8.90
2018,10,23,12,15,8.90
2018,10,23,12,16,8.90
2018,10,23,12,17,9.00
2018,10,23,12,18,9.00
2018,10,23,12,19,9.00
2018,10,23,12,20,9.10
2018,10,23,12,21,9.10
2018,10,23,12,22,9.10
2018,10,23,12,23,9.10
2018,10,23,12,24,9.10
2018,10,23,12,25,9.10
2018,10,23,12,26,9.10
2018,10,23,12,27,9.10
2018,10,23,12,28,9.10
2018,10,23,12,29,9.10
2018,10,23,12,30,9.10
2018,10,23,12,31,9.20
2018,10,23,12,32,9.20
2018,10,23,12,33,9.20
2018,10,23,12,34,9.20
2018,10,23,12,35,9.20
2018,10,23,12,36,9.20
2018,10,23,12,37,9.20
2018,10,23,12,38,9.20
2018,10,23,12,39,9.20
2018,10,23,12,40,9.20
2018,10,23,12,41,9.20
2018,10,23,12,42,9.20
2018,10,23,12,43,9.20
2018,10,23,12,44,9.10
2018,10,23,12,45,9.10
2018,10,23,12,46,9.10
2018,10,23,12,47,9.00
2018,10,23,12,48,9.00
2018,10,23,12,49,9.00
2018,10,23,12,50,9.00
2018,10,23,12,51,9.00
2018,10,23,12,52,9.00
2018,10,23,12,53,8.90
2018,10,23,12,54,9.00
2018,10,23,12,55,9.00
2018,10,23,12,56,9.00
2018,10,23,12,57,9.00
2018,10,23,12,58,9.00
2018,10,23,12,59,9.00
2018,10,23,13,00,9.00
2018,10,23,13,01,9.10
2018,10,23,13,02,9.10
2018,10,23,13,03,9.10
2018,10,23,13,04,9.10
2018,10,23,13,05,9.10
2018,10,23,13,06,9.20
2018,10,23,13,07,9.20
2018,10,23,13,08,9.20
2018,10,23,13,09,9.20
2018,10,23,13,10,9.20
2018,10,23,13,11,9.30
2018,10,23,13,12,9.30
2018,10,23,13,13,9.30
2018,10,23,13,14,9.30
2018,10,23,13,15,9.30
2018,10,23,13,16,9.40
2018,10,23,13,17,9.40
2018,10,23,13,18,9.40
2018,10,23,13,19,9.40
2018,10,23,13,20,9.50
2018,10,23,13,21,9.50
2018,10,23,13,22,9.60
2018,10,23,13,23,9.60
2018,10,23,13,24,9.60
2018,10,23,13,25,9.60
2018,10,23,13,26,9.60
2018,10,23,13,27,9.70
2018,10,23,13,28,9.70
2018,10,23,13,29,9.70
2018,10,23,13,30,9.70
2018,10,23,13,31,9.70
2018,10,23,13,32,9.80
2018,10,23,13,33,9.80
2018,10,23,13,34,9.80
2018,10,23,13,35,9.80
2018,10,23,13,36,9.90
2018,10,23,13,37,9.90
2018,10,23,13,38,9.90
2018,10,23,13,39,10.00
2018,10,23,13,40,10.00
2018,10,23,13,41,10.00
2018,10,23,13,42,10.10
2018,10,23,13,43,10.10
2018,10,23,13,44,10.10
2018,10,23,13,45,10.20
2018,10,23,13,46,10.20
2018,10,23,13,47,10.20
2018,10,23,13,48,10.20
2018,10,23,13,49,10.20
2018,10,23,13,50,10.20
2018,10,23,13,51,10.30
2018,10,23,13,52,10.30
2018,10,23,13,53,10.30
2018,10,23,13,54,10.30
2018,10,23,13,55,10.30
2018,10,23,13,56,10.30
2018,10,23,13,57,10.30
2018,10,23,13,58,10.30
2018,10,23,13,59,10.40
2018,10,23,14,00,10.40
2018,10,23,14,01,10.40
2018,10,23,14,02,10.40
2018,10,23,14,03,10.40
2018,10,23,14,04,10.40
2018,10,23,14,05,10.40
2018,10,23,14,06,10.40
2018,10,23,14,07,10.50
2018,10,23,14,08,10.50
2018,10,23,14,09,10.50
2018,10,23,14,10,10.50
2018,10,23,14,11,10.50
2018,10,23,14,12,10.50
2018,10,23,14,13,10.50
2018,10,23,14,14,10.50
2018,10,23,14,15,10.50
2018,10,23,14,16,10.40
2018,10,23,14,17,10.50
2018,10,23,14,18,10.50
2018,10,23,14,19,10.50
2018,10,23,14,20,10.50
2018,10,23,14,21,10.40
2018,10,23,14,22,10.40
2018,10,23,14,23,10.40
2018,10,23,14,24,10.40
2018,10,23,14,25,10.40
2018,10,23,14,26,10.40
2018,10,23,14,27,10.40
2018,10,23,14,28,10.40
2018,10,23,14,29,10.40
2018,10,23,14,30,10.40
2018,10,23,14,31,10.40
2018,10,23,14,32,10.40
2018,10,23,14,33,10.40
2018,10,23,14,34,10.40
2018,10,23,14,35,10.40
2018,10,23,14,36,10.40
2018,10,23,14,37,10.40
2018,10,23,14,38,10.40
2018,10,23,14,39,10.40
2018,10,23,14,40,10.40
2018,10,23,14,41,10.40
2018,10,23,14,42,10.40
2018,10,23,14,43,10.40
2018,10,23,14,44,10.50
2018,10,23,14,45,10.40
2018,10,23,14,46,10.40
2018,10,23,14,47,10.40
2018,10,23,14,48,10.40
2018,10,23,14,49,10.40
2018,10,23,14,50,10.40
2018,10,23,14,51,10.40
2018,10,23,14,52,10.40
2018,10,23,14,53,10.40
2018,10,23,14,54,10.40
2018,10,23,14,55,10.40
2018,10,23,14,56,10.40
2018,10,23,14,57,10.40
2018,10,23,14,58,10.40
2018,10,23,14,59,10.30
2018,10,23,15,00,10.30
2018,10,23,15,01,10.30
2018,10,23,15,02,10.30
2018,10,23,15,03,10.30
2018,10,23,15,04,10.30
2018,10,23,15,05,10.40
2018,10,23,15,06,10.40
2018,10,23,15,07,10.30
2018,10,23,15,08,10.30
2018,10,23,15,09,10.30
2018,10,23,15,10,10.30
2018,10,23,15,11,10.30
2018,10,23,15,12,10.40
2018,10,23,15,13,10.40
2018,10,23,15,14,10.40
2018,10,23,15,15,10.40
2018,10,23,15,16,10.40
2018,10,23,15,17,10.40
2018,10,23,15,18,10.40
2018,10,23,15,19,10.40
2018,10,23,15,20,10.40
2018,10,23,15,21,10.40
2018,10,23,15,22,10.40
2018,10,23,15,23,10.50
2018,10,23,15,24,10.50
2018,10,23,15,25,10.50
2018,10,23,15,26,10.50
2018,10,23,15,27,10.50
2018,10,23,15,28,10.50
2018,10,23,15,29,10.50
2018,10,23,15,30,10.50
2018,10,23,15,31,10.60
2018,10,23,15,32,10.60
2018,10,23,15,33,10.60
2018,10,23,15,34,10.60
2018,10,23,15,35,10.60
2018,10,23,15,36,10.60
2018,10,23,15,37,10.60
2018,10,23,15,38,10.60
2018,10,23,15,39,10.60
2018,10,23,15,40,10.60
2018,10,23,15,41,10.60
2018,10,23,15,42,10.60
2018,10,23,15,43,10.60
2018,10,23,15,44,10.60
2018,10,23,15,45,10.60
2018,10,23,15,46,10.60
2018,10,23,15,47,10.70
2018,10,23,15,48,10.70
2018,10,23,15,49,10.70
2018,10,23,15,50,10.70
2018,10,23,15,51,10.70
2018,10,23,15,52,10.80
2018,10,23,15,53,10.80
2018,10,23,15,54,10.80
2018,10,23,15,55,10.80
2018,10,23,15,56,10.80
2018,10,23,15,57,10.80
2018,10,23,15,58,10.80
2018,10,23,15,59,10.80
2018,10,23,16,00,10.80
2018,10,23,16,01,10.80
2018,10,23,16,02,10.80
2018,10,23,16,03,10.80
2018,10,23,16,04,10.80
2018,10,23,16,05,10.80
2018,10,23,16,06,10.80
2018,10,23,16,07,10.80
2018,10,23,16,08,10.80
2018,10,23,16,09,10.80
2018,10,23,16,10,10.80
2018,10,23,16,11,10.80
2018,10,23,16,12,10.90
2018,10,23,16,13,10.90
2018,10,23,16,14,10.90
2018,10,23,16,15,10.90
2018,10,23,16,16,10.90
2018,10,23,16,17,10.90
2018,10,23,16,18,10.90
2018,10,23,16,19,10.90
2018,10,23,16,20,10.90
2018,10,23,16,21,10.90
2018,10,23,16,22,10.90
2018,10,23,16,23,10.90
2018,10,23,16,24,10.90
2018,10,23,16,25,10.90
2018,10,23,16,26,10.90
2018,10,23,16,27,10.90
2018,10,23,16,28,10.90
2018,10,23,16,29,10.90
2018,10,23,16,30,10.90
2018,10,23,16,31,10.80
2018,10,23,16,32,10.80
2018,10,23,16,33,10.80
2018,10,23,16,34,10.80
2018,10,23,16,35,10.80
2018,10,23,16,36,10.80
2018,10,23,16,37,10.80
2018,10,23,16,38,10.80
2018,10,23,16,39,10.80
2018,10,23,16,40,10.80
2018,10,23,16,41,10.80
2018,10,23,16,42,10.80
2018,10,23,16,43,10.80
2018,10,23,16,44,10.80
2018,10,23,16,45,10.80
2018,10,23,16,46,10.80
2018,10,23,16,47,10.80
2018,10,23,16,48,10.80
2018,10,23,16,49,10.80
2018,10,23,16,50,10.80
2018,10,23,16,51,10.80
2018,10,23,16,52,10.80
2018,10,23,16,53,10.80
2018,10,23,16,54,10.80
2018,10,23,16,55,10.80
2018,10,23,16,56,10.80
2018,10,23,16,57,10.80
2018,10,23,16,58,10.80
2018,10,23,16,59,10.80
2018,10,23,17,00,10.80
2018,10,23,17,01,10.80
2018,10,23,17,02,10.80
2018,10,23,17,03,10.80
2018,10,23,17,04,10.80
2018,10,23,17,05,10.80
2018,10,23,17,06,10.80
2018,10,23,17,07,10.80
2018,10,23,17,08,10.80
2018,10,23,17,09,10.80
2018,10,23,17,10,10.80
2018,10,23,17,11,10.80
2018,10,23,17,12,10.80
2018,10,23,17,13,10.80
2018,10,23,17,14,10.80
2018,10,23,17,15,10.80
2018,10,23,17,16,10.80
2018,10,23,17,17,10.80
2018,10,23,17,18,10.80
2018,10,23,17,19,10.80
2018,10,23,17,20,10.80
2018,10,23,17,21,10.80
2018,10,23,17,22,10.80
2018,10,23,17,23,10.80
2018,10,23,17,24,10.70
2018,10,23,17,25,10.70
2018,10,23,17,26,10.70
2018,10,23,17,27,10.70
2018,10,23,17,28,10.70
2018,10,23,17,29,10.70
2018,10,23,17,30,10.70
2018,10,23,17,31,10.70
2018,10,23,17,32,10.70
2018,10,23,17,33,10.70
2018,10,23,17,34,10.70
2018,10,23,17,35,10.70
2018,10,23,17,36,10.70
2018,10,23,17,37,10.70
2018,10,23,17,38,10.70
2018,10,23,17,39,10.70
2018,10,23,17,40,10.70
2018,10,23,17,41,10.70
2018,10,23,17,42,10.70
2018,10,23,17,43,10.60
2018,10,23,17,44,10.60
2018,10,23,17,45,10.60
2018,10,23,17,46,10.60
2018,10,23,17,47,10.60
2018,10,23,17,48,10.60
2018,10,23,17,49,10.60
2018,10,23,17,50,10.60
2018,10,23,17,51,10.60
2018,10,23,17,52,10.60
2018,10,23,17,53,10.60
2018,10,23,17,54,10.60
2018,10,23,17,55,10.60